KD4PYR Weather Reports


Display with metric or nautical units.
time (UTC)temp
F
wind
direction
speed
MPH
gust
MPH
rain 1hr
in
rain 24hr
in
rain mn
in
humidity
%
barometer
mb
20260509141849 57 182 6.0 8.0 0.01 0.10 0.10 83 1006.7
20260509140814 57 183 3.0 8.0 0.01 0.10 0.10 84 1006.5
20260509135817 56 140 1.0 5.0 0.00 0.09 0.09 85 1006.4
20260509134838 56 191 2.0 5.0 0.00 0.09 0.09 85 1006.3
20260509133829 56 191 3.0 6.0 0.00 0.09 0.09 85 1006.4
20260509132820 55 193 1.0 6.0 0.00 0.09 0.09 85 1006.4
20260509131838 55 196 2.0 7.0 0.01 0.09 0.09 85 1006.5
20260509130829 55 9 1.0 4.0 0.01 0.09 0.09 85 1006.7
20260509125832 55 9 1.0 3.0 0.01 0.09 0.09 85 1006.6
20260509124835 55 11 0.0 1.0 0.01 0.09 0.09 85 1006.5
20260509123826 54 11 0.0 1.0 0.01 0.09 0.09 85 1006.5
20260509122818 54 11 0.0 0.0 0.02 0.09 0.09 85 1006.5
20260509121835 53 11 0.0 1.0 0.01 0.08 0.08 85 1006.6
20260509120827 53 11 0.0 1.0 0.01 0.08 0.08 85 1006.5
20260509115814 53 11 0.0 1.0 0.01 0.08 0.08 85 1006.4
20260509114831 53 11 0.0 1.0 0.02 0.08 0.08 85 1006.4
20260509113827 53 11 0.0 1.0 0.02 0.08 0.08 84 1006.4
20260509112819 53 11 0.0 1.0 0.01 0.07 0.07 84 1006.2
20260509111839 53 11 0.0 1.0 0.02 0.07 0.07 84 1006.2
20260509110829 53 349 0.0 1.0 0.02 0.07 0.07 84 1006.3
20260509105830 53 349 0.0 2.0 0.02 0.07 0.07 84 1006.3
20260509104833 53 349 0.0 2.0 0.02 0.06 0.06 84 1006.4
20260509103825 54 348 1.0 1.0 0.02 0.06 0.06 84 1006.4
20260509102815 54 349 0.0 2.0 0.02 0.06 0.06 84 1006.3
20260509101833 54 349 0.0 1.0 0.01 0.05 0.05 84 1006.3
20260509100850 54 349 0.0 1.0 0.02 0.05 0.05 84 1006.4
20260509095830 54 349 0.0 0.0 0.02 0.05 0.05 84 1006.9
20260509094832 54 349 0.0 1.0 0.01 0.04 0.04 84 1006.6
20260509093824 54 349 0.0 2.0 0.01 0.04 0.04 84 1006.6
20260509092816 54 349 0.0 0.0 0.02 0.04 0.04 84 1006.6
20260509091834 54 349 0.0 1.0 0.02 0.04 0.04 84 1006.4
20260509090825 54 349 1.0 2.0 0.01 0.03 0.03 84 1006.3
20260509085828 54 349 0.0 1.0 0.02 0.03 0.03 83 1006.7
20260509084834 54 349 0.0 0.0 0.02 0.03 0.03 83 1006.7
20260509083826 54 349 0.0 0.0 0.02 0.03 0.03 83 1007.0
20260509082817 54 349 0.0 1.0 0.01 0.02 0.02 83 1007.4
20260509081835 54 349 0.0 1.0 0.02 0.02 0.02 83 1007.3
20260509080826 54 349 0.0 2.0 0.02 0.02 0.02 83 1007.4
20260509075832 54 349 0.0 1.0 0.01 0.01 0.01 82 1007.4
20260509074814 54 349 0.0 1.0 0.01 0.01 0.01 82 1007.5
20260509073851 54 349 0.0 0.0 0.01 0.01 0.01 82 1007.4
20260509072821 54 349 0.0 2.0 0.01 0.01 0.01 81 1007.3
20260509071901 55 349 0.0 1.0 0.00 0.00 0.00 81 1007.3
20260509070829 55 349 0.0 2.0 0.00 0.00 0.00 81 1007.3
20260509065833 55 349 0.0 2.0 0.00 0.00 0.00 81 1007.4
20260509064835 55 348 0.0 4.0 0.00 0.00 0.00 80 1007.6
20260509063833 55 346 1.0 4.0 0.00 0.00 0.00 80 1007.7
20260509062825 55 347 0.0 3.0 0.00 0.00 0.00 80 1007.7
20260509061843 55 347 0.0 1.0 0.00 0.00 0.00 80 1007.6
20260509060818 55 347 1.0 2.0 0.00 0.00 0.00 80 1007.7
20260509055822 55 347 1.0 2.0 0.00 0.00 0.00 79 1007.7
20260509054821 55 347 1.0 3.0 0.00 0.00 0.00 79 1007.6
20260509053814 55 347 0.0 4.0 0.00 0.00 0.00 79 1007.6
20260509052832 55 342 0.0 2.0 0.00 0.00 0.00 79 1007.7
20260509051823 56 342 0.0 1.0 0.00 0.00 0.00 79 1007.7
20260509050815 56 343 0.0 2.0 0.00 0.00 0.00 79 1007.7
20260509045816 56 344 0.0 1.0 0.00 0.00 0.00 79 1007.6
20260509044818 56 344 0.0 1.0 0.00 0.00 0.00 79 1007.6
20260509043855 56 344 0.0 3.0 0.00 0.00 0.00 79 1007.7
20260509042827 56 336 0.0 1.0 0.00 0.00 0.00 79 1007.7
20260509041819 56 336 0.0 1.0 0.00 0.00 0.00 79 1007.6
20260509040838 56 336 1.0 3.0 0.00 0.00 0.00 79 1007.9
20260509035820 57 360 2.0 5.0 0.00 0.00 0.00 78 1007.9
20260509034830 57 332 2.0 9.0 0.00 0.00 0.00 77 1007.9
20260509033822 58 336 4.0 8.0 0.00 0.00 0.00 75 1008.1
20260509032814 59 339 4.0 10.0 0.00 0.00 0.00 71 1008.1
20260509031832 60 5 3.0 6.0 0.00 0.00 0.00 64 1008.2
20260509030824 61 326 2.0 8.0 0.00 0.00 0.00 60 1008.1
20260509025827 61 188 0.0 2.0 0.00 0.00 0.00 57 1007.9
20260509024832 62 188 0.0 4.0 0.00 0.00 0.00 57 1007.9
20260509023823 62 186 0.0 2.0 0.00 0.00 0.00 55 1007.9
20260509022815 62 186 0.0 2.0 0.00 0.00 0.00 55 1007.9
20260509021853 62 184 1.0 4.0 0.00 0.00 0.00 55 1007.9
20260509020822 62 184 1.0 2.0 0.00 0.00 0.00 54 1007.8
20260509015847 63 179 1.0 4.0 0.00 0.00 0.00 53 1007.8
20260509014827 63 152 0.0 3.0 0.00 0.00 0.00 54 1007.9
20260509013821 63 147 1.0 5.0 0.00 0.00 0.00 53 1007.8
20260509012841 63 171 1.0 5.0 0.00 0.00 0.00 54 1007.7
20260509011837 63 163 0.0 2.0 0.00 0.00 0.00 54 1007.7
20260509010829 64 165 1.0 2.0 0.00 0.00 0.00 53 1007.7
20260509005834 64 165 1.0 5.0 0.00 0.00 0.00 52 1007.8
20260509004858 64 203 2.0 6.0 0.00 0.00 0.00 51 1007.6
20260509003828 64 190 1.0 6.0 0.00 0.00 0.00 52 1007.5
20260509002821 64 168 1.0 5.0 0.00 0.00 0.00 52 1007.5
20260509001840 65 181 3.0 7.0 0.00 0.00 0.00 51 1007.4
20260509000831 65 184 1.0 8.0 0.00 0.00 0.00 51 1007.5
20260508235835 65 184 2.0 9.0 0.00 0.00 0.00 52 1007.6
20260508234858 65 187 3.0 9.0 0.00 0.00 0.00 51 1007.6
20260508233827 65 177 3.0 5.0 0.00 0.00 0.00 51 1007.6
20260508232820 65 186 2.0 7.0 0.00 0.00 0.00 50 1007.6
20260508231817 66 146 3.0 8.0 0.00 0.00 0.00 50 1007.6
20260508230834 66 173 3.0 7.0 0.00 0.00 0.00 50 1007.5
20260508225840 66 186 3.0 8.0 0.00 0.00 0.00 50 1007.6
20260508224822 66 182 3.0 7.0 0.00 0.00 0.00 49 1007.5
20260508223841 66 185 2.0 14.0 0.00 0.00 0.00 49 1007.4
20260508222832 67 156 3.0 7.0 0.00 0.00 0.00 49 1007.3
20260508221853 67 157 4.0 8.0 0.00 0.00 0.00 48 1007.4
20260508220823 67 158 3.0 8.0 0.00 0.00 0.00 48 1007.2
20260508215825 67 191 5.0 10.0 0.00 0.00 0.00 47 1007.2
20260508214849 67 183 5.0 14.0 0.00 0.00 0.00 47 1007.4
20260508213818 68 148 3.0 10.0 0.00 0.00 0.00 47 1007.4
20260508212839 68 165 5.0 10.0 0.00 0.00 0.00 45 1007.5
20260508211831 68 215 3.0 11.0 0.00 0.00 0.00 48 1007.6
20260508210822 68 180 5.0 14.0 0.00 0.00 0.00 47 1007.7
20260508205826 68 127 5.0 13.0 0.00 0.00 0.00 47 1007.9
20260508204849 69 157 7.0 10.0 0.00 0.00 0.00 45 1007.8
20260508203819 69 184 3.0 11.0 0.00 0.00 0.00 46 1008.1
20260508202835 68 190 9.0 16.0 0.00 0.00 0.00 44 1008.4
20260508201826 69 204 4.0 10.0 0.00 0.00 0.00 48 1008.4
20260508200817 67 169 3.0 10.0 0.00 0.00 0.00 46 1008.6
20260508195819 67 190 5.0 15.0 0.00 0.00 0.00 44 1008.7
20260508194822 68 180 6.0 10.0 0.00 0.00 0.00 43 1008.8
20260508193841 68 153 3.0 10.0 0.00 0.00 0.00 44 1008.7
20260508192832 68 173 6.0 11.0 0.00 0.00 0.00 45 1008.8
20260508191825 69 151 4.0 10.0 0.00 0.00 0.00 46 1009.0
20260508190815 69 188 4.0 10.0 0.00 0.00 0.00 43 1009.0
20260508185835 68 184 7.0 13.0 0.00 0.00 0.00 42 1009.2
20260508184839 69 178 5.0 14.0 0.00 0.00 0.00 44 1009.5
20260508183831 68 217 4.0 17.0 0.00 0.00 0.00 45 1009.6
20260508182823 68 153 5.0 11.0 0.00 0.00 0.00 44 1009.7
20260508181842 68 180 4.0 11.0 0.00 0.00 0.00 47 1009.9
20260508180831 67 184 4.0 15.0 0.00 0.00 0.00 46 1010.1
20260508175816 67 162 2.0 10.0 0.00 0.00 0.00 45 1010.1
20260508174820 67 130 2.0 10.0 0.00 0.00 0.00 45 1010.3
20260508173816 67 185 5.0 11.0 0.00 0.00 0.00 45 1010.4
20260508172834 67 192 5.0 13.0 0.00 0.00 0.00 45 1010.5
20260508171827 67 265 4.0 11.0 0.00 0.00 0.00 45 1010.9
20260508170843 66 175 3.0 15.0 0.00 0.00 0.00 50 1011.0
20260508165826 66 280 4.0 9.0 0.00 0.00 0.00 47 1011.3
20260508164828 66 189 5.0 16.0 0.00 0.00 0.00 50 1011.6
20260508163819 65 153 4.0 10.0 0.00 0.00 0.00 50 1011.7
20260508162839 65 177 4.0 15.0 0.00 0.00 0.00 52 1011.9
20260508161829 64 290 4.0 12.0 0.00 0.00 0.00 52 1012.1
20260508160820 64 211 4.0 10.0 0.00 0.00 0.00 53 1012.2
20260508155823 63 167 5.0 11.0 0.00 0.00 0.00 52 1012.2
20260508154825 63 286 3.0 12.0 0.00 0.00 0.00 53 1012.4
20260508153817 62 182 2.0 9.0 0.00 0.00 0.00 56 1012.5
20260508152835 62 187 5.0 11.0 0.00 0.00 0.00 54 1012.6
20260508151825 61 188 4.0 11.0 0.00 0.00 0.00 55 1012.8
20260508150817 61 144 2.0 8.0 0.00 0.00 0.00 56 1012.9
20260508145822 60 189 4.0 11.0 0.00 0.00 0.00 57 1012.9
20260508144841 59 176 2.0 10.0 0.00 0.00 0.00 60 1012.9
20260508143839 58 168 6.0 10.0 0.00 0.00 0.00 59 1013.0
20260508142829 57 183 5.0 12.0 0.00 0.00 0.00 60 1012.9